Regional Weather Roundup
Issued by NWS

Home | Current Version | Previous Version | Graphics & Text | Print | Product List | Glossary Off
Versions: 1 2 3 4 5 6 7 8 9 10 11 12 13 14 15 16 17 18 19 20 21 22 23 24 25 26 27 28 29 30 31 32 33 34 35 36 37 38 39 40 41 42 43 44 45 46 47 48 49 50

000
ASUS43 KMPX 202010
RWRMN
WEATHER ROUNDUP FOR MINNESOTA
NATIONAL WEATHER SERVICE TWIN CITIES/CHANHASSEN MN
300 PM CDT MON APR 20 2015


NOTE: "FAIR" INDICATES FEW OR NO CLOUDS BELOW 12,000 FEET WITH NO
SIGNIFICANT WEATHER AND/OR OBSTRUCTIONS TO VISIBILITY. N/A MEANS
CURRENT SKY AND/OR WEATHER CONDITIONS ARE NOT AVAILABLE.

MNZ060>063-068>070-202100-
   Twin Cities Metro

CITY           SKY/WX    TMP DP  RH WIND       PRES   REMARKS
TWIN CITIES    CLOUDY    42  26  53 W18G29    29.51F
ST PAUL        CLOUDY    43  27  53 W14G26    29.51F
CRYSTAL        CLOUDY    44  26  49 NW18G26   29.50S
LAKEVILLE      CLOUDY    39  28  65 NW17G25   29.51S
EDEN PRAIRIE   CLOUDY    43  25  49 W18G31    29.51F
SOUTH ST PAUL  CLOUDY    43  26  51 NW14G23   29.50F
LAKE ELMO      CLOUDY    43  28  56 NW17G24   29.50S
$$
MNZ001>005-007-008-013>017-022>024-027-028-202100-
   Northwest Minnesota

CITY           SKY/WX    TMP DP  RH WIND       PRES   REMARKS
BEMIDJI        LGT SNOW  32  28  84 NW20G26   29.46S WCI  20
HALLOCK        DRIZZLE   36  30  80 NW26G37   29.55S
ROSEAU         CLOUDY    36  30  80 NW23G29   29.46S
WARROAD        FLURRIES  36  32  87 NW18G33   29.44S
THIEF RVR FALL CLOUDY    34  30  86 NW26G35   29.52S WCI  21
CROOKSTON      LGT SNOW  34  34 100 NW25G38   29.57S WCI  21
FOSSTON        LGT SNOW  32  28  86 NW20G26   29.52S WCI  20
DETROIT LAKES  LGT RAIN  34  32  93 NW25G33   29.55S WCI  21
MOORHEAD       LGT RAIN  37  32  81 NW21G29   29.60S
PARK RAPIDS    LGT RAIN  41  27  57 NW24G31   29.48S
MAHNOMEN       LGT SNOW  33  31  90 NW26G33   29.53S WCI  20
$$
MNZ006-009>011-018-025>026-202100-
   North Central Minnesota

CITY           SKY/WX    TMP DP  RH WIND       PRES   REMARKS
BAUDETTE       LGT SNOW  35  31  85 NW17G26   29.40S FOG     WCI  25
FLAG ISLAND    CLOUDY    36  30  80 NW26      29.39S
INTL FALLS     CLOUDY    33  27  78 W12G23    29.36F WCI  24
WASKISH        FLURRIES  34  28  80 W15       29.43F WCI  24
BIG FORK       CLOUDY    32  27  80 W8G21     29.41S WCI  25
LONGVILLE      CLOUDY    36  27  69 W14G22    29.45S
GRAND RAPIDS   CLOUDY    34  25  69 NW15G28   29.41S WCI  24
CRANE LAKE     CLOUDY    30  27  86 W6        29.37S WCI  24
ORR            CLOUDY    32  25  74 W10G20    29.34S WCI  24
COOK           CLOUDY    34  27  75 W13G20    29.37S WCI  25
WALKER         FLURRIES  33  25  72 NW15G21   29.45F WCI  22
$$
MNZ012-019>021-037-202100-
   Northeast Minnesota

CITY           SKY/WX    TMP DP  RH WIND       PRES   REMARKS
DULUTH         CLOUDY    36  27  69 W25G32    29.36R
ELY            CLOUDY    32  28  86 W14G21    29.32S WCI  22
HIBBING        CLOUDY    33  25  72 NW12G21   29.38S WCI  24
EVELETH        CLOUDY    32  28  86 NW15G23   29.37S WCI  22
DULUTH HARBOR  CLOUDY    39  30  70 W23       29.40R
TWO HARBORS    CLOUDY    39  30  70 W10G29    29.33R
SILVER BAY     CLOUDY    37  28  70 W10G22    29.30S
GRAND MARAIS     N/A     39  31  72 W12G22    29.23R
G MARAIS ARPRT CLOUDY    34  28  80 W12G22    29.19F WCI  25
$$
MNZ029>031-032-039>041-046>048-054>057-064-202100-
   West Central Minnesota

CITY           SKY/WX    TMP DP  RH WIND       PRES   REMARKS
FERGUS FALLS   LGT SNOW  36  34  93 NW28G38   29.60S
WHEATON        MOSUNNY   37  30  75 NW29G36   29.64S
MORRIS         LGT RAIN  37  36  93 NW21G26   29.60S
ALEXANDRIA     CLOUDY    40  28  62 NW25G31   29.55F
ELBOW LAKE     LGT SNOW  35  34  95 NW24G33   29.58S WCI  23
WADENA         MIX PCPN  36  28  75 NW20G35   29.51S
GLENWOOD       PTSUNNY   37  28  70 NW23G33   29.57S
APPLETON       MOSUNNY   41  32  70 NW20      29.62F
BENSON         CLOUDY    39  30  70 N23       29.61R
ORTONVILLE     CLOUDY    41  28  60 NW23G31   29.63S
MADISON        CLOUDY    43  28  56 NW23G30   29.64S
WILLMAR        FAIR      43  30  61 NW24G31   29.60S
$$
MNZ033>034-036-042>043-049>051-058-059-202100-
   Central Minnesota

CITY           SKY/WX    TMP DP  RH WIND       PRES   REMARKS
ST CLOUD       CLOUDY    38  25  59 W21G30    29.53R
SAUK CENTRE    CLOUDY    39  27  60 NW24      29.54F
PAYNESVILLE    CLOUDY    36  27  71 W21G28    29.57S
AITKIN         CLOUDY    39  27  60 W7G22     29.43S
PINE RIVER     CLOUDY    36  25  64 W12G23    29.51S
BRAINERD       CLOUDY    37  24  59 W22       29.48F
STAPLES        CLOUDY    36  27  69 NW16G28   29.50F
LONG PRAIRIE   CLOUDY    37  27  65 W20G25    29.53F
LITTLE FALLS   CLOUDY    36  23  60 NW17G26   29.52S
LITCHFIELD     CLOUDY    41  28  60 NW18G30   29.57R
BUFFALO        CLOUDY    41  26  55 W21G29    29.54R
MAPLE LAKE     CLOUDY    41  29  62 W18G30    29.55R
$$
MNZ037-044-045-052-053-202100-
   East Central Minnesota

CITY           SKY/WX    TMP DP  RH WIND       PRES   REMARKS
PRINCETON      CLOUDY    41  27  56 W22G30    29.51R
MORA           CLOUDY    37  25  60 NW20G26   29.47S
CAMBRIDGE      CLOUDY    43  27  52 W21G29    29.46S
RUSH CITY      CLOUDY    40  28  60 NW12G22   29.47R
MOOSE LAKE     CLOUDY    36  27  69 W13G22    29.41S
HINCKLEY       CLOUDY    37  30  75 W20G26    29.45R
CLOQUET        CLOUDY    36  27  69 W16G26    29.39S
MCGREGOR       CLOUDY    37  28  70 NW15G21   29.43S
$$
MNZ071>073-080-081-089-090-097-098-202100-
   Southwest Minnesota

CITY           SKY/WX    TMP DP  RH WIND       PRES   REMARKS
MONTEVIDEO     CLOUDY    41  36  81 NW20G29   29.63F
GRANITE FALLS  DRIZZLE   36  32  85 NW18G33   29.66R
CANBY          CLOUDY    40  29  65 NW28G35   29.67S
MARSHALL       CLOUDY    37  28  70 NW21G29   29.65R
REDWOOD FALLS  CLOUDY    43  33  68 W26G33    29.62R
OLIVIA         CLOUDY    37  28  70 NW21G31   29.60R
PIPESTONE      PTSUNNY   45  25  45 NW30G41   29.66R
WINDOM         CLOUDY    43  32  65 NW22      29.64R
WORTHINGTON    CLOUDY    46  25  42 NW29G38   29.64S
JACKSON        CLOUDY    43  32  65 NW21G31   29.64S
TRACY          CLOUDY    42  32  68 NW21G30   29.65R
SLAYTON        CLOUDY    43  27  54 NW28G33   29.64S
$$
MNZ065>067-074>077-082>085-091>093-202100-
   South Central Minnesota

CITY           SKY/WX    TMP DP  RH WIND       PRES   REMARKS
MANKATO        CLOUDY    43  25  49 NW29G37   29.58R
NEW ULM        CLOUDY    43  28  56 NW24G33   29.60S
ST JAMES       CLOUDY    43  34  70 NW22G32   29.63S
FAIRMONT       CLOUDY    41  30  65 NW24G30   29.63R
GLENCOE        CLOUDY    43  30  59 W22G33    29.55S
FARIBAULT      CLOUDY    43  28  56 W18G25    29.55R
OWATONNA       CLOUDY    43  28  56 W25G33    29.55R
WASECA         CLOUDY    43  32  65 W23G35    29.58R
ALBERT LEA     CLOUDY    43  32  65 W22G30    29.57R
$$
MNZ078>079-086>088-094>096-202100-
   Southeast Minnesota

CITY           SKY/WX    TMP DP  RH WIND       PRES   REMARKS
ROCHESTER      CLOUDY    41  31  67 NW24G32   29.52S
RED WING       CLOUDY    43  27  52 W17G24    29.50S
STANTON        CLOUDY    43  28  56 NW22G30   29.52S
DODGE CENTER   CLOUDY    43  30  61 NW17G28   29.52S
WINONA         CLOUDY    41  30  65 NW15G24   29.51S
AUSTIN         CLOUDY    43  30  61 NW18G36   29.55R
PRESTON        CLOUDY    39  30  68 NW25G31   29.53S
$$
ABBREVIATIONS USED IN REMARKS
   TC - TEMPERATURES IN CELSIUS
  WCI - WIND CHILL INDEX
   HX - HEAT INDEX
  VSB - VISIBILITY
$$



USA.gov is the U.S. government's official web portal to all federal, state and local government web resources and services.